Location: Buisson
(44.2787°N, 4.9969°E)
Time: 07:44:21
(UTC+00:00)

Cosmos 1703 Rocket - Pass Details

Date: 18 April 2021
Orbit: 605 x 633 km, 82.5° (Epoch: 05 May)

Event Time Altitude Azimuth Distance (km) Brightness Sun altitude
Exits shadow 02:36:17 64° 262° (W) 675 3.4 -21.9°
Maximum altitude 02:36:28 65° 280° (W) 669 3.5 -21.8°
Drops below altitude 10° 02:40:48 10° 3° (N) 1,964 6.7 -21.3°
Sets 02:43:02 0° 6° (N) 2,873 7.7 -20.9°
